Location: Unspecified
(0.0000°N, 0.0000°E)
Time: 12:43:21
(UTC+00:00)

DMSP 5D-2 F13 DEB - Visible Passes

Search period start: 11 February 2026 00:00
Search period end: 21 February 2026 00:00
Orbit: 831 x 836 km, 98.8° (Epoch: 7 February)

Date Brightness Start Highest point End Pass type
(mag) Time Alt. Az. Time Alt. Az. Time Alt. Az.
11 Feb ? 18:52:07 10° S 18:57:12 42° WSW 19:02:16 10° NNW visible
12 Feb ? 18:35:04 10° S 18:40:27 67° WSW 18:45:48 10° NNW visible
13 Feb ? 05:37:36 10° NE 05:41:59 25° ESE 05:46:21 10° SSE visible
14 Feb ? 05:22:04 10° ENE 05:25:15 16° ESE 05:28:26 10° SE visible
14 Feb ? 19:46:05 10° WSW 19:46:58 10° WSW 19:47:54 10° W visible
15 Feb ? 19:26:47 10° SW 19:30:16 17° WSW 19:33:43 10° WNW visible
16 Feb ? 19:09:00 10° SSW 19:13:31 27° WSW 19:18:02 10° NW visible
17 Feb ? 18:51:41 10° S 18:56:47 43° WSW 19:01:52 10° NNW visible
18 Feb ? 18:34:39 10° S 18:40:02 69° WSW 18:45:23 10° NNW visible
19 Feb ? 05:37:14 10° NE 05:41:34 25° ESE 05:45:54 10° SSE visible
20 Feb ? 05:21:41 10° ENE 05:24:50 16° ESE 05:27:57 10° SE visible
20 Feb ? 19:45:25 10° WSW 19:46:33 11° WSW 19:47:41 10° W visible
